Location: Burgberg
(50.1428°N, 11.0671°E)
Time: 05:18:46
(UTC+00:00)

BREEZE M DEB (TANK) - Pass Details

Date: 26 January 2020
Orbit: 297 x 14513 km, 49.6° (Epoch: 26 February)

Event Time Altitude Azimuth Distance (km) Brightness Sun altitude
Exits shadow 05:11:28 20° 282° (WNW) 5,192 6.6 -17.0°
Maximum altitude 05:22:02 72° 204° (SSW) 1,304 4.1 -15.3°
Drops below altitude 10° 05:26:24 10° 120° (ESE) 2,116 6.5 -14.6°
Sets 05:27:47 0° 117° (ESE) 2,708 7.5 -14.4°
